sat.trackr.live / text

‹ back to catalog

STARLINK-35639

NORAD 66382 · 2025-257C

PAYLOAD ACTIVE UNKNOWN

§ Identity

Operator
Country
US
Launch date
2025-11-09
Launch site
AFETR
Launch vehicle
Mass (kg)
RCS (m²)

Purposes: comms

External: N2YO · Heavens-Above · Gunter

§ Orbital elements

Epoch: 2026-09-20T13:48:17.395776Z

Period
93.85 min
Inclination
53.1612°
Eccentricity
0.0000687
Mean motion
15.34425533 rev/d
Perigee alt
462.2 km
Apogee alt
463.1 km
Semi-major
6,840.8 km
B*
7.3219e-4
RAAN
29.5164°
Arg perigee
87.7288°
Mean anomaly
272.3793°
Rev number
4,960

§ Raw data

STARLINK-356391 66382U 25257C   26263.57520134  .00024463  00000+0  73219-3 0  99952 66382  53.1612  29.5164 0000687  87.7288 272.3793 15.34425533 49600

JSON: /api/v1/satellites/66382 · /tle

For live sub-satellite position, see the globe view (requires WebGL).

§ Visibility from observer

Set your observer location to see the next 7 days of passes ≥ 10°. The values pass through the URL so the page stays shareable.

No JS? Fill the form by hand. The geolocation button needs JavaScript.